www.pogodaiklimat.ru

АРХИВ ПОГОДЫ в Краснодаре

Время (UTC), дата Ветер
(напр.,м/с)
 
Видим.   Явления Облачность Т
(С)
Тd
(С)
f
(%)
Тe
(С)
Тes
(С)
Комфортность P
(гПа)
Po
(гПа)
Тmin
(С)
Tmax
(С)
R
(мм)
S
(см)
03 15.11 штиль 0 4000 м дымка 8/6 1000 м
[Sc Ci]
+2.4 +1.4 93 +1 +1 по сезону 1018.7 1014.9 +2.3
06 15.11 СВ 1 4000 м дымка 6/0
[Ac trans]
+3.8 +1.7 86 +2 +3 по сезону 1019.6 1015.9
09 15.11 ЮВ 1 10 км 4/0
[Ac trans]
+9.1 +2.4 63 +9 +12 тепло 1018.3 1014.7
12 15.11 Ю 1 10 км 9/0
[Ac trans]
+9.9 +3.8 66 +10 +11 по сезону 1017.9 1014.2
15 15.11 З 1 10 км 8/0
[Ac trans]
+7.7 +3.5 75 +7 +7 по сезону 1018.2 1014.5 +10.9
18 15.11 З 1 4000 м дымка 9/0
[Ac trans]
+6.0 +3.3 83 +5 +5 по сезону 1018.1 1014.4
21 15.11 штиль 0 4000 м дымка 8/0
[Ac trans]
+4.9 +2.9 87 +4 +4 по сезону 1017.8 1014.1
00 16.11 СВ 1 4000 м дымка 9/0
[Ac trans]
+5.7 +3.2 84 +5 +5 по сезону 1017.7 1014.0
03 16.11 СВ 1 10 км 9/0
[Ac trans]
+4.6 +2.8 88 +3 +3 по сезону 1018.1 1014.4 +4.3
06 16.11 СВ 1 10 км 9/0
[Ac trans]
+5.8 +3.9 88 +5 +5 по сезону 1019.2 1015.5
09 16.11 СВ 1 10 км 10/6 300 м
[St Ac und]
+8.8 +5.5 80 +8 +9 по сезону 1019.1 1015.4
12 16.11 СВ 1 10 км 10/10 300 м
[St]
+8.2 +5.1 81 +7 +7 по сезону 1019.3 1015.6
15 16.11 СВ 1 10 км 10/10 300 м
[St]
+7.1 +4.5 84 +6 +6 по сезону 1019.9 1016.2 +9.4
18 16.11 СВ 2 10 км 10/10 300 м
[St]
+5.1 +3.1 87 +2 +2 по сезону 1020.8 1017.0
21 16.11 СВ 2 10 км 10/10 300 м
[St]
+4.7 +2.7 87 +2 +2 по сезону 1021.2 1017.5
00 17.11 СВ 2 10 км 10/10 300 м
[St]
+3.9 +1.6 85 +1 +1 по сезону 1021.5 1017.7
03 17.11 СВ 3 10 км 10/6 300 м
[St Ac und]
+3.1 +0.1 81 -1 -1 прохладно 1021.9 1018.1 +3.1
06 17.11 СВ 2 10 км 10/8 300 м
[St Ac und]
+3.0 -0.3 79 0 0 по сезону 1023.0 1019.2 +2.7
09 17.11 В 2 10 км 9/4 1000 м
[Sc Ac cast]
+6.8 +1.1 67 +5 +6 по сезону 1022.3 1018.6
12 17.11 СВ 2 10 км 3/0
[Ci fib]
+8.3 +1.5 62 +7 +8 по сезону 1021.9 1018.2
15 17.11 СВ 1 10 км 8/0
[Ac trans Ci fib]
+6.0 +1.0 70 +5 +5 по сезону 1022.2 1018.4 +8.3
18 17.11 СВ 2 10 км 10/0
[Ci fib]
+3.4 -0.2 77 +1 +1 прохладно 1022.5 1018.8
21 17.11 СВ 2 10 км 10/0
[Ci fib]
+3.4 -0.2 77 +1 +1 по сезону 1022.5 1018.8
00 18.11 СВ 1 10 км 6/0
[Ci fib]
+2.1 -0.1 85 0 0 по сезону 1022.5 1018.7
03 18.11 СВ 1 10 км 6/0
[Ci fib]
+2.1 -0.1 85 0 0 по сезону 1022.5 1018.7
06 18.11 СВ 2 10 км 9/0
[Ac trans Ci]
+1.6 -0.4 87 -2 -1 прохладно 1022.6 1018.8 +1.6
09 18.11 В 1 10 км 10/10 1000 м
[Cb cap]
+4.9 +3.4 90 +4 +4 по сезону 1022.9 1019.1
12 18.11 СВ 1 10 км слабый ливневой дождь 10/10 1000 м
[Cb cap]
+6.1 +4.9 92 +5 +5 по сезону 1022.7 1019.0
15 18.11 штиль 0 10 км в посл. час ливневой дождь 10/10 1000 м
[Cb cap]
+6.7 +5.7 93 +6 +6 по сезону 1023.6 1019.9 +6.7
18 18.11 СВ 1 10 км 10/10 1000 м
[Cb cap]
+7.3 +6.4 94 +6 +6 по сезону 1023.9 1020.2
21 18.11 С 1 10 км 9/9 1000 м
[Cb cap]
+7.3 +6.3 93 +6 +6 по сезону 1024.6 1020.9
00 19.11 В 1 10 км 10/10 1000 м
[Sc]
+7.2 +6.4 95 +6 +6 тепло 1025.0 1021.3
03 19.11 СВ 1 10 км 10/10 1000 м
[Sc]
+6.8 +6.1 95 +6 +6 тепло 1024.9 1021.2 +6.7
06 19.11 В 1 200 м туман ?/? +7.4 +6.8 96 +6 +6 тепло 1026.2 1022.5
09 19.11 СВ 1 200 м туман ?/? +9.2 +8.6 96 +8 +8 тепло 1026.1 1022.4
12 19.11 СВ 1 4000 м в посл. час туман 9/9 300 м
[St]
+11.1 +9.7 91 +11 +11 тепло 1025.1 1021.4
15 19.11 В 2 10 км 10/8 1000 м
[Sc Ac und]
+11.3 +8.5 83 +10 +10 тепло 1025.7 1022.0 +12.0
18 19.11 В 2 10 км ясно +9.1 +6.4 83 +7 +7 тепло 1025.2 1021.5
21 19.11 В 1 10 км ясно +6.2 +4.3 88 +5 +5 по сезону 1024.5 1020.8
00 20.11 СВ 3 10 км ясно +4.9 +3.2 89 +1 +1 по сезону 1023.5 1019.7
03 20.11 СВ 2 10 км 5/3 1000 м
[Sc Ac trans]
+4.1 +2.5 89 +1 +1 по сезону 1022.5 1018.7 +4.1
06 20.11 СВ 3 10 км 4/3 1000 м
[Sc Ci fib]
+5.3 +2.9 84 +2 +2 по сезону 1022.5 1018.8 +4.1
09 20.11 В 4 10 км 5/0
[Ci fib]
+10.2 +4.7 69 +8 +10 тепло 1021.5 1017.8
12 20.11 В 3 10 км 10/0
[Ci fib]
+11.8 +4.6 61 +10 +11 тепло 1020.6 1017.0
15 20.11 В 3
{10}
10 км 10/0
[Ac trans Ci fib]
+8.6 +1.5 61 +6 +6 по сезону 1020.9 1017.2 +11.9
18 20.11 СВ 3
{12}
10 км 10/0
[Ac trans Ci fib]
+5.8 +1.7 75 +3 +3 по сезону 1020.5 1016.8
21 20.11 СВ 2 10 км 3/0
[Ci fib]
+3.8 +0.7 80 +1 +1 по сезону 1020.5 1016.8
00 21.11 СВ 2 10 км 3/3 300 м
[St]
+3.1 +0.1 81 0 0 по сезону 1019.8 1016.0
03 21.11 СВ 3 10 км 5/0
[Ci fib]
+2.4 -0.4 82 -2 -2 прохладно 1019.4 1015.6 +2.4
06 21.11 СВ 3 10 км 9/0
[Ac trans Ci fib]
+2.0 -0.9 81 -2 -2 прохладно 1019.9 1016.1 +1.7
09 21.11 СВ 2 10 км 10/6 300 м
[St Ac trans Ci fib]
+5.4 +0.8 72 +3 +4 по сезону 1019.4 1015.7
12 21.11 СВ 3 10 км 10/0
[Ac trans Ci fib]
+7.0 +1.6 68 +4 +5 по сезону 1018.9 1015.2
15 21.11 СВ 3 10 км 10/0
[Ci fib]
+3.8 -0.1 76 0 0 прохладно 1019.2 1015.4 +7.4
18 21.11 СВ 4
{10}
10 км 8/8 1000 м
[Sc Ac trans Ci fib]
+2.6 -0.6 79 -2 -2 прохладно 1019.0 1015.2
21 21.11 СВ 4
{10}
10 км 8/8 1000 м
[Sc Ac trans Ci fib]
+2.6 -0.6 79 -2 -2 прохладно 1019.0 1015.2
00 22.11 СВ 3 10 км 10/10 1000 м
[Sc]
+2.9 -1.2 74 -1 -1 по сезону 1018.3 1014.6

 

Обсудить погоду в Краснодаре на МЕТЕОФОРУМЕ

 

Местоположение метеостанции Краснодар (Краснодарский край, Россия): широта 45.03 долгота 39.15 высота над уровнем моря 34 м.

В архиве по умолчанию представлена погода в Краснодаре за последнюю неделю. Архивные данные за месяц целиком и за предыдущие месяцы, начиная с января 2011 года, Вы можете получить, выбрав интересующий диапазон дат из раскрывающегося списка и нажав кнопку "Ввод!".

Внимание! Время в таблицах - всемирное. Для получения местного времени необходимо прибавить поправку, которая в Краснодаре равна 3 ч.

Ветер - указаны скорость ветра в м/с - средняя за 10 мин, порывы в срок и между сроками (в фигурных скобках) и направление, откуда дует ветер: С - северный, СВ - северо-восточный, В - восточный, ЮВ - юго-восточный, Ю - южный, ЮЗ - юго-западный, З - западный, СЗ - северо-западный.
Видимость - горизонтальная дальность видимости в метрах или километрах. При видимости от 1 до 10 км при отсутствии осадков обычно наблюдается дымка, при ухудшении видимости до 1 км и менее - туман. В сухую погоду видимость может ухудшаться дымом, пылью или мглою.
Явления - указаны атсосферные явления, наблюдавшиеся в срок или в последний час перед сроком; фигурными скобками обозначены явления, наблюдавшиеся между сроками (за 1-3 часа до срока); квадратными скобками обозначены град или гололедные отложения с указанием их диаметра в мм.
Облачность - указаны через наклонную черту общая и нижняя облачность в баллах и высота нижней границы облаков в метрах; квадратными скобками обозначены формы облаков: Ci - перистые, Cs - перисто-слоистые, Cc - перисто-кучевые, Ac - высококучевые, As - высокослоистые, Sc - слоисто-кучевые, Ns - слоисто-дождевые, Cu - кучевые, Cb - кучево-дождевые. Подробнее классификацию облаков см. в Атласе облаков (PDF).
T - Температура воздуха - температура, измеренная на высоте 2 м над землей.
Td - Температура точки росы - температура, при понижении до которой содержащийся в воздухе водяной пар достигнет насыщения.
f - Относительная влажность воздуха - влажноcть воздуха, измеренная на высоте 2 м над землей.
Te - Эффективная температура - температура, которую ощущает одетый по сезону человек в тени. Характеристика душности погоды. При расчете учитывается влияние влажности воздуха и скорости ветра на теплоощущения человека.
Tes - Эффективная температура на солнце - температура, которую ощущает человек, с поправкой на солнечный нагрев. Характеристика знойности погоды. Зависит от высоты солнца над горизонтом, облачности и скорости ветра. Ночью, в пасмурную погоду, а также при ветре 12 м/с и более поправка равна нулю.
P - Атмосферное давление - приведенное к уровню моря атмосферное давление.
Po - Атмосферное давление - измеренное на уровне метеостанции атмосферное давление.
Tmin - Минимальная температура - минимум температуры воздуха на высоте 2 м над землей.
Tmax - Максимальная температура - максимум температуры воздуха на высоте 2 м над землей.
R - Количество осадков - Количество выпавших осадков, мм.
S - Снежный покров - Высота снежного покрова, см.